STARLINK-35093

Last updated on Tue Sep 16 2025 00:02:08 GMT+0000 (Coordinated Universal Time)

1 65478U 25195W 25257.83234822 .09685762 00000+0 33820-1 0 9994 2 65478 53.1547 1.1134 0018949 267.2206 92.6649 15.83346467 2963
UTC large
Height (km)
Speed (km/s)
/
Latitude / Longitude
Inclination (degrees)
Orbital Period (minutes)
Azimuth
Elevation
Range (km)
Doppler Factor

Next 0 passes for location: London (51.5072 / 0.1276)

Sorry there are no passes over London.